[[{"header":{"parameterUnit":"m.s-1","parameterCategory":1,"la1":30.2991,"la2":30.254,"lo1":-89.0895,"lo2":-89.0444,"dy":0.0017,"dx":0.0017,"nx":28,"ny":28,"refTime":"2024-04-12T03:00:00:Z","depth":0,"parameterNumber":2,"parameterNumberName":"U-component_of_WINDS"},"data":[0,0,0,0,0,0,0,0,0,0,0,0,0,0,0,0,0,0,0,0,0,0,0,0,0,0,0,0,0,0,0,0,0,0,0,0,0,0,0,0,0,0,0,0,0,0,0,0,0,0,0,0,0,0,0,0,0,0,-1.5434,-1.5434,0,-1.5438,-1.5438,-1.5438,-1.5336,-1.5334,-1.5331,-1.5328,-1.5334,-1.5337,-1.534,0,0,0,0,0,0,0,0,0,0,0,0,0,-1.5339,-1.5341,-1.5434,-1.5434,-1.5434,-1.5438,-1.5438,-1.5438,-1.5337,-1.5334,-1.533,-1.5327,-1.5333,-1.5337,-1.534,0,0,0,0,0,0,0,0,0,0,0,0,0,-1.5366,-1.5342,-1.5434,-1.5384,-1.5379,-1.5438,-1.5438,-1.5438,-1.5338,-1.5334,-1.5329,-1.5326,-1.5332,-1.5336,-1.534,-1.5447,0,0,-1.5353,-1.5354,0,0,0,0,0,0,0,0,-1.5364,-1.5369,-1.5391,-1.5387,-1.5382,-1.5382,-1.5406,-1.5441,-1.5339,-1.5354,-1.5328,-1.5324,-1.5354,-1.5356,-1.5365,-1.5447,-1.5447,-1.5353,-1.5355,-1.5357,-1.5358,0,0,0,0,0,0,0,-1.5363,-1.5368,-1.5435,-1.5391,-1.5386,-1.5362,-1.5361,-1.5413,-1.5377,-1.5352,-1.5345,-1.5346,-1.5351,-1.5362,-1.5365,-1.5447,-1.5353,-1.5356,-1.5359,-1.536,-1.5617,-1.5621,0,0,0,0,0,0,-1.5367,-1.5368,-1.5435,-1.5435,-1.5363,-1.5367,-1.5366,-1.5387,-1.5376,-1.537,-1.535,-1.5342,-1.5357,-1.536,-1.5365,-1.5489,-1.5357,-1.5361,-1.5363,-1.5613,-1.5618,-1.5623,0,0,0,0,0,0,-1.5366,-1.5374,-1.5435,-1.5399,-1.5405,-1.5372,-1.5397,-1.5389,-1.54,-1.5374,-1.5367,-1.5368,-1.5354,-1.5359,-1.5427,-1.5488,-1.5363,-1.5366,-1.5607,-1.5614,-1.562,-1.574,0,0,0,0,0,0,-1.5363,-1.5374,-1.5414,-1.5401,-1.5408,-1.5497,-1.54,-1.5392,-1.5407,-1.5396,-1.5389,-1.5384,-1.5351,-1.5422,-1.5431,-1.5491,-1.537,-1.5602,-1.561,-1.5618,-1.573,-1.5749,-1.5766,0,0,0,0,0,-1.536,-1.5448,-1.5417,-1.5426,-1.5457,-1.5501,-1.5505,-1.5464,-1.5412,-1.5453,-1.5436,-1.5384,-1.548,-1.543,-1.5439,-1.5502,-1.5598,-1.5608,-1.5618,-1.5722,-1.5746,-1.5766,0,0,0,0,0,0,-1.547,-1.5445,-1.5411,-1.5496,-1.5502,-1.5484,-1.5533,-1.5491,-1.5511,-1.55,-1.545,-1.5449,-1.5526,-1.552,-1.5465,-1.5604,-1.553,-1.5542,-1.5606,-1.5628,-1.5645,-1.5646,-1.5373,0,0,0,0,0,-1.5504,-1.5542,-1.5518,-1.5596,-1.56,-1.5567,-1.5585,-1.5553,-1.5556,-1.5558,-1.5546,-1.5552,-1.5583,-1.5605,-1.5632,-1.5728,-1.5726,-1.5776,-1.5794,-1.5809,-1.5821,-1.5872,-1.5894,-1.5655,-1.5655,-1.5655,0,0,-1.5575,-1.5566,-1.5593,-1.5618,-1.5618,-1.5659,-1.5569,-1.5616,-1.5646,-1.5565,-1.5629,-1.5621,-1.5624,-1.5707,-1.5742,-1.5704,-1.5886,-1.5821,-1.5833,-1.5837,-1.5884,-1.5907,-1.5927,-1.5662,-1.5661,-1.566,0,0,-1.5725,-1.5722,-1.5787,-1.5789,-1.579,-1.5767,-1.5783,-1.5772,-1.5763,-1.5826,-1.5766,-1.5801,-1.5855,-1.586,-1.587,-1.6021,-1.5975,-1.6032,-1.6126,-1.6177,-1.6195,-1.6212,-1.6267,-1.6287,-1.6043,-1.6043,-1.6044,0,-1.5814,-1.5872,-1.5826,-1.5877,-1.589,-1.5818,-1.5884,-1.5888,-1.5898,-1.5909,-1.5866,-1.5933,-1.593,-1.6013,-1.605,-1.606,-1.6077,-1.6033,-1.6196,-1.6212,-1.6227,-1.6279,-1.63,-1.605,-1.6049,-1.6049,-1.6048,0,-1.5981,-1.6023,-1.6075,-1.6087,-1.6105,-1.6163,-1.6126,-1.6151,-1.6117,-1.6099,-1.6164,-1.6158,-1.6182,-1.6199,-1.6167,-1.6279,-1.6255,-1.6205,-1.6129,-1.6258,-1.6306,-1.6325,-1.606,-1.6058,-1.6056,-1.6054,0,0,-1.6202,-1.6187,-1.6207,-1.6212,-1.6207,-1.6239,-1.6294,-1.6317,-1.634,-1.6349,-1.6394,-1.6442,-1.6395,-1.6406,-1.6374,-1.6418,-1.654,-1.6362,-1.6361,-1.6397,-1.6663,-1.6702,-1.6726,-1.6508,-1.6512,-1.6515,-1.6663,0,-1.6349,-1.6442,-1.6402,-1.6499,-1.6537,-1.6469,-1.6516,-1.6519,-1.6504,-1.6534,-1.6516,-1.6551,-1.6486,-1.6493,-1.6533,-1.6517,-1.6593,-1.6505,-1.6551,-1.6553,-1.6554,-1.6751,-1.6792,-1.6932,-1.6682,-1.6685,-1.6687,0,-1.6534,-1.655,-1.6651,-1.664,-1.6655,-1.6699,-1.6717,-1.6747,-1.6748,-1.6734,-1.6746,-1.6703,-1.6757,-1.668,-1.6753,-1.6694,-1.671,-1.6705,-1.671,-1.6714,-1.6629,-1.6761,-1.6976,-1.6998,-1.6716,-1.6714,-1.6711,0,-1.6686,-1.6734,-1.68,-1.6806,-1.6795,-1.6827,-1.6824,-1.6822,-1.6839,-1.6855,-1.6865,-1.6888,-1.6901,-1.6919,-1.6884,-1.6831,-1.6963,-1.6883,-1.6953,-1.6954,-1.6985,-1.6984,-1.7207,-1.6993,-1.6993,-1.6992,-1.6992,0,-1.6856,-1.6921,-1.6869,-1.691,-1.6981,-1.6934,-1.7005,-1.6994,-1.6993,-1.7031,-1.6973,-1.701,-1.696,-1.6993,-1.6966,-1.7031,-1.7037,-1.7027,-1.7019,-1.7033,-1.7035,-1.7044,-1.7034,-1.6998,-1.6997,-1.6996,-1.6995,0,-1.7039,-1.7007,-1.7075,-1.7059,-1.7056,-1.7109,-1.7095,-1.7132,-1.7112,-1.7161,-1.717,-1.7138,-1.7173,-1.7139,-1.7173,-1.7154,-1.7242,-1.7219,-1.7242,-1.7236,-1.7309,-1.7303,-1.7547,-1.7577,-1.7343,-1.7345,-1.7347,0,-1.715,-1.7198,-1.7187,-1.7208,-1.7208,-1.7243,-1.726,-1.7215,-1.7235,-1.7241,-1.7278,-1.7308,-1.733,-1.7389,-1.737,-1.7395,-1.7373,-1.7457,-1.7377,-1.7389,-1.7376,-1.7374,-1.7379,-1.7474,-1.7477,-1.7479,-1.7481,0,-1.7351,-1.7332,-1.7359,-1.738,-1.7402,-1.7416,-1.7426,-1.7447,-1.7401,-1.7426,-1.7461,-1.7478,-1.7512,-1.7543,-1.7562,-1.7558,-1.7513,-1.7506,-1.7523,-1.7539,-1.7551,-1.7546,-1.7288,-1.7501,-1.7499,-1.7497,-1.7496,-1.7495,-1.7502,-1.7542,-1.754,-1.7571,-1.7574,-1.7585,-1.7619,-1.7603,-1.7631,-1.7655,-1.7627,-1.767,-1.767,-1.7691,-1.7693,-1.7727,-1.7692,-1.7717,-1.7724,-1.7731,-1.7743,-1.7544,-1.773,-1.7729,-1.7729,-1.7728,-1.7728,0,-1.7701,-1.7696,-1.7725,-1.7741,-1.7766,-1.7719,-1.7728,-1.7752,-1.7791,-1.7795,-1.7817,-1.7858,-1.7887,-1.787,-1.7895,-1.7925,-1.7905,-1.7934,-1.7932,-1.7932,-1.7772,-1.7755,-1.795,-1.795,-1.795,-1.795,-1.795,-1.795,-1.7807,-1.7873,-1.7854,-1.792,-1.7915,-1.7957,-1.7966,-1.7975,-1.7978,-1.8026,-1.805,-1.8038,-1.8034,-1.8058,-1.8083,-1.8077,-1.809,-1.8127,-1.8114,-1.7965,-1.7943,-1.7922,-1.7906,-1.8129,-1.813,-1.827,-1.8272,-1.8273]},{"header":{"parameterUnit":"m.s-1","parameterCategory":1,"la1":30.2991,"la2":30.254,"lo1":-89.0895,"lo2":-89.0444,"dy":0.0017,"dx":0.0017,"nx":28,"ny":28,"refTime":"2024-04-12T03:00:00:Z","depth":0,"parameterNumber":3,"parameterNumberName":"V-component_of_WINDS"},"data":[0,0,0,0,0,0,0,0,0,0,0,0,0,0,0,0,0,0,0,0,0,0,0,0,0,0,0,0,0,0,0,0,0,0,0,0,0,0,0,0,0,0,0,0,0,0,0,0,0,0,0,0,0,0,0,0,0,0,-2.0291,-2.0292,0,-2.039,-2.0391,-2.0392,-2.0395,-2.0394,-2.0392,-2.0391,-2.049,-2.0493,-2.0497,0,0,0,0,0,0,0,0,0,0,0,0,0,-2.0104,-2.0108,-2.0291,-2.0292,-2.0294,-2.0389,-2.0391,-2.0392,-2.0395,-2.0394,-2.0392,-2.0391,-2.0488,-2.0493,-2.0497,0,0,0,0,0,0,0,0,0,0,0,0,0,-2.0192,-2.0109,-2.0291,-2.0307,-2.0309,-2.0389,-2.0391,-2.0392,-2.0395,-2.0394,-2.0392,-2.039,-2.0487,-2.0492,-2.0498,-2.0568,0,0,-2.0515,-2.0517,0,0,0,0,0,0,0,0,-2.0187,-2.0199,-2.0303,-2.0306,-2.0309,-2.0378,-2.0361,-2.0451,-2.0396,-2.0363,-2.0391,-2.0389,-2.0454,-2.0462,-2.0484,-2.0572,-2.0577,-2.0515,-2.0519,-2.0521,-2.0523,0,0,0,0,0,0,0,-2.0181,-2.0195,-2.033,-2.0305,-2.0308,-2.0308,-2.0319,-2.0378,-2.0417,-2.0365,-2.0366,-2.0377,-2.0455,-2.0479,-2.0487,-2.0578,-2.0515,-2.052,-2.0524,-2.0526,-2.0729,-2.0731,0,0,0,0,0,0,-2.0172,-2.019,-2.0327,-2.0333,-2.0242,-2.0313,-2.0325,-2.0358,-2.0416,-2.0424,-2.0379,-2.0377,-2.047,-2.048,-2.049,-2.0576,-2.0521,-2.0526,-2.053,-2.0727,-2.0729,-2.0731,0,0,0,0,0,0,-2.0168,-2.0184,-2.0323,-2.0262,-2.0279,-2.0318,-2.0355,-2.036,-2.0384,-2.0427,-2.0433,-2.0396,-2.0469,-2.0482,-2.0549,-2.058,-2.0529,-2.0534,-2.0724,-2.0727,-2.073,-2.0749,0,0,0,0,0,0,-2.0163,-2.0183,-2.021,-2.0262,-2.0283,-2.0381,-2.0357,-2.0364,-2.0394,-2.0393,-2.0445,-2.0452,-2.0469,-2.054,-2.0554,-2.0586,-2.0538,-2.0722,-2.0726,-2.0729,-2.0746,-2.0752,-2.0758,0,0,0,0,0,-2.0156,-2.0211,-2.0212,-2.0228,-2.0318,-2.0383,-2.0394,-2.0413,-2.0397,-2.0425,-2.0452,-2.045,-2.0574,-2.0547,-2.0563,-2.0597,-2.072,-2.0725,-2.0729,-2.0743,-2.0751,-2.0758,0,0,0,0,0,0,-2.0161,-2.0218,-2.022,-2.0293,-2.0333,-2.0383,-2.0419,-2.0421,-2.0466,-2.0463,-2.0484,-2.0496,-2.0562,-2.0586,-2.0555,-2.0668,-2.0645,-2.0653,-2.065,-2.0658,-2.0664,-2.0657,-2.0543,0,0,0,0,0,-2.0171,-2.022,-2.0266,-2.0327,-2.0347,-2.0379,-2.0408,-2.042,-2.0462,-2.0478,-2.051,-2.055,-2.0598,-2.0629,-2.0676,-2.0749,-2.076,-2.078,-2.0786,-2.0791,-2.0798,-2.0838,-2.0848,-2.0747,-2.0746,-2.0746,0,0,-2.0192,-2.0229,-2.0258,-2.0329,-2.0361,-2.041,-2.0393,-2.0446,-2.0483,-2.0486,-2.0551,-2.0576,-2.0622,-2.0692,-2.0725,-2.0714,-2.0828,-2.0797,-2.08,-2.0804,-2.0844,-2.0853,-2.0862,-2.075,-2.0749,-2.0749,0,0,-2.0255,-2.0288,-2.0342,-2.0375,-2.0424,-2.0445,-2.0458,-2.0508,-2.0525,-2.059,-2.0594,-2.0637,-2.0719,-2.0752,-2.078,-2.0855,-2.0855,-2.0869,-2.0901,-2.094,-2.0948,-2.0955,-2.0982,-2.0992,-2.0876,-2.0876,-2.0876,0,-2.0274,-2.0349,-2.0369,-2.0422,-2.0453,-2.0459,-2.0514,-2.0544,-2.0606,-2.0627,-2.0614,-2.0718,-2.0749,-2.0827,-2.0846,-2.0868,-2.0883,-2.0864,-2.0946,-2.0953,-2.096,-2.0986,-2.0996,-2.0877,-2.0877,-2.0877,-2.0877,0,-2.037,-2.0422,-2.046,-2.052,-2.0555,-2.0609,-2.0636,-2.0669,-2.0678,-2.07,-2.0767,-2.0805,-2.0859,-2.0878,-2.0886,-2.0958,-2.095,-2.0941,-2.0918,-2.0971,-2.0995,-2.1006,-2.0879,-2.0879,-2.0878,-2.0878,0,0,-2.044,-2.0511,-2.0524,-2.0552,-2.0606,-2.0647,-2.07,-2.0754,-2.0782,-2.0824,-2.0869,-2.0939,-2.0931,-2.0962,-2.0974,-2.1009,-2.1066,-2.0996,-2.0997,-2.1008,-2.1147,-2.1153,-2.1165,-2.1066,-2.1068,-2.107,-2.1143,0,-2.0509,-2.0605,-2.0625,-2.0708,-2.0756,-2.0762,-2.0809,-2.0847,-2.0869,-2.0913,-2.0936,-2.0986,-2.0972,-2.0991,-2.1025,-2.1052,-2.1094,-2.1047,-2.1108,-2.111,-2.1097,-2.1178,-2.1185,-2.1252,-2.1153,-2.1155,-2.1156,0,-2.0602,-2.0648,-2.0736,-2.0785,-2.0805,-2.0847,-2.0898,-2.094,-2.0983,-2.0997,-2.1031,-2.104,-2.1095,-2.1069,-2.1146,-2.1113,-2.1139,-2.1156,-2.1159,-2.1166,-2.1137,-2.1187,-2.1274,-2.1284,-2.1171,-2.117,-2.1169,0,-2.0644,-2.0727,-2.0791,-2.0814,-2.0872,-2.0902,-2.0927,-2.0969,-2.1,-2.1044,-2.1065,-2.1114,-2.1142,-2.118,-2.1201,-2.118,-2.1276,-2.1252,-2.1288,-2.1288,-2.1308,-2.1307,-2.1401,-2.1324,-2.1324,-2.1324,-2.1324,0,-2.072,-2.0774,-2.0811,-2.085,-2.091,-2.0932,-2.0991,-2.1016,-2.1053,-2.1096,-2.1104,-2.1145,-2.117,-2.1214,-2.1231,-2.1292,-2.1304,-2.1316,-2.132,-2.1316,-2.1314,-2.1334,-2.133,-2.1327,-2.1326,-2.1326,-2.1325,0,-2.0777,-2.0804,-2.0874,-2.0924,-2.0937,-2.098,-2.1022,-2.106,-2.1082,-2.1137,-2.1151,-2.1185,-2.1238,-2.1263,-2.1327,-2.1338,-2.1407,-2.1408,-2.1393,-2.1395,-2.143,-2.1427,-2.154,-2.1556,-2.1469,-2.147,-2.147,0,-2.0824,-2.0866,-2.092,-2.095,-2.0976,-2.1025,-2.1057,-2.1079,-2.1112,-2.1165,-2.1196,-2.1249,-2.1293,-2.1376,-2.1406,-2.1456,-2.1458,-2.1494,-2.1465,-2.146,-2.1459,-2.1456,-2.1461,-2.15,-2.15,-2.1501,-2.1502,0,-2.0904,-2.0915,-2.0962,-2.1013,-2.1051,-2.1092,-2.1133,-2.1157,-2.1186,-2.1222,-2.1276,-2.131,-2.1376,-2.1429,-2.148,-2.1505,-2.1509,-2.1511,-2.1522,-2.1518,-2.1508,-2.1514,-2.1408,-2.1508,-2.1507,-2.1507,-2.1506,-2.1506,-2.0958,-2.0995,-2.1039,-2.1091,-2.1124,-2.1161,-2.1199,-2.1226,-2.1272,-2.1329,-2.1339,-2.1396,-2.1438,-2.1508,-2.1535,-2.158,-2.1571,-2.1587,-2.1592,-2.1595,-2.1597,-2.15,-2.1589,-2.1589,-2.1589,-2.1589,-2.1589,0,-2.1038,-2.1067,-2.1114,-2.1171,-2.1211,-2.1211,-2.1256,-2.1289,-2.134,-2.1379,-2.1422,-2.1484,-2.1535,-2.1569,-2.1621,-2.165,-2.1653,-2.1663,-2.1661,-2.1667,-2.1602,-2.1587,-2.166,-2.166,-2.166,-2.166,-2.166,-2.166,-2.1085,-2.1149,-2.1165,-2.1245,-2.1273,-2.133,-2.1356,-2.139,-2.1422,-2.1491,-2.1533,-2.1556,-2.1593,-2.1647,-2.1693,-2.1702,-2.1721,-2.1731,-2.174,-2.1679,-2.1671,-2.1664,-2.1651,-2.1735,-2.1735,-2.1801,-2.1802,-2.1802]}]]